This is the latest recevied weather packets stored in our database for station/object W2TAO. If no packets are shown the sender has not sent any weather packets the latest 10 day(s).
| Time | Temp. | Humidity | Pressure | Rain* | Wind** | Luminosity | Snow |
|---|---|---|---|---|---|---|---|
| 1777577557 | 11.11° C | 68% | 1008.7 hPa | 0 mm | - | 271 W/m² | - |
| 1777577254 | 11.11° C | 70% | 1008.6 hPa | 0 mm | - | 243 W/m² | - |
| 1777576950 | 11.11° C | 75% | 1008.7 hPa | 0 mm | - | 221 W/m² | - |
| 1777576647 | 11.11° C | 75% | 1008.7 hPa | 0 mm | - | 159 W/m² | - |
| 1777576347 | 11.11° C | 71% | 1008.6 hPa | 0 mm | - | 208 W/m² | - |
| 1777576044 | 11.67° C | 75% | 1008.6 hPa | 0 mm | - | 174 W/m² | - |
| 1777575740 | 11.67° C | 78% | 1008.7 hPa | 0 mm | - | 196 W/m² | - |
| 1777575436 | 11.67° C | 74% | 1008.6 hPa | 0 mm | - | 231 W/m² | - |
| 1777575132 | 11.67° C | 75% | 1008.7 hPa | 0 mm | - | 295 W/m² | - |
| 1777574827 | 11.67° C | 73% | 1008.7 hPa | 0 mm | - | 271 W/m² | - |
| 1777574526 | 11.67° C | 72% | 1008.7 hPa | 0 mm | - | 250 W/m² | - |
| 1777574222 | 11.67° C | 71% | 1008.8 hPa | 0 mm | - | 205 W/m² | - |
| 1777573922 | 11.67° C | 80% | 1008.8 hPa | 0 mm | - | 253 W/m² | - |
| 1777573622 | 11.11° C | 76% | 1008.8 hPa | 0 mm | - | 294 W/m² | - |
| 1777573318 | 11.11° C | 78% | 1008.8 hPa | 0 mm | - | 215 W/m² | - |
| 1777573014 | 11.11° C | 78% | 1008.7 hPa | 0 mm | - | 203 W/m² | - |
| 1777572710 | 11.11° C | 79% | 1008.6 hPa | 0 mm | - | 206 W/m² | - |
| 1777572405 | 11.11° C | 79% | 1008.8 hPa | 0 mm | - | 184 W/m² | - |
| 1777572103 | 11.11° C | 78% | 1008.9 hPa | 0 mm | - | 133 W/m² | - |
| 1777571803 | 11.11° C | 78% | 1008.6 hPa | 0 mm | - | 100 W/m² | - |
| 1777571499 | 11.67° C | 76% | 1008.5 hPa | 0 mm | - | 92 W/m² | - |
| 1777571196 | 11.67° C | 77% | 1008.5 hPa | 0 mm | - | 247 W/m² | - |
| 1777570891 | 12.22° C | 76% | 1008.5 hPa | 0 mm | - | 307 W/m² | - |
| 1777570587 | 11.67° C | 77% | 1008.4 hPa | 0 mm | - | 262 W/m² | - |
| 1777570285 | 12.22° C | 78% | 1008.6 hPa | 0 mm | - | 255 W/m² | - |
* Rain latest hour (hover to see other rain measurements)
** Current wind speed in m/s (hover to see current wind gust speed)